San Jose, Costa Rica

8:16 PM CST on March 23, 2017 (GMT -0600)
Juan Santamaria International Airport

Weather History for MROC - January, 2004

Change the Weather History Date:

Thursday, January 1, 2004

  Actual Average Record
Temperature  
Mean Temperature 74 °F -  
Max Temperature 78 °F 80 °F 86 °F (2003)
Min Temperature 69 °F 63 °F 62 °F (2003)
Cooling Degree Days 8    
Growing Degree Days 24 (Base 50)    
Moisture  
Dew Point 58 °F    
Average Humidity 60    
Maximum Humidity 73    
Minimum Humidity 47    
Precipitation  
Precipitation 0.00 in 0.01 in - ()
Sea Level Pressure  
Sea Level Pressure 29.92 in    
Wind  
Wind Speed 15 mph ()    
Max Wind Speed 32 mph    
Max Gust Speed 43 mph    
Visibility 5.9 miles    
Events      
Averages and records for this station are not official NWS values.
T = Trace of Precipitation, MM = Missing Value Source: Averaged Metar Reports

Daily Weather History Graph

Daily Weather History Graph

Search for Another Location

Airport or City:

Trip Planner

Search our weather history database for the weather conditions in past years. The results will help you decide how hot, cold, wet, or windy it might be!

Date:

Astronomy

Jan. 01, 2004 Rise Set
Actual Time 5:53 AM CST 5:26 PM CST
Civil Twilight 5:30 AM CST 5:49 PM CST
Nautical Twilight 5:04 AM CST 6:15 PM CST
Astronomical Twilight 4:38 AM CST 6:42 PM CST
Moon 1:05 PM CST (1/1) 1:00 AM CST (1/1)
Length of Visible Light 12h 18m
Length of Day
11h 33m
Waxing Gibbous, 72% of the Moon is Illuminated
Jan 1
Waxing Gibbous
Jan 7
Full
Jan 14
Last Quarter
Jan 21
New
Jan 29
First Quarter

Hourly Weather History & Observations

Time (CST) Temp. Dew Point Humidity Pressure Visibility Wind Dir Wind Speed Gust Speed Precip Events Conditions
12:00 AM 69.8 °F 59.0 °F 68% 29.92 in 6.2 mi East 13.8 mph - N/A   Partly Cloudy
1:00 AM 69.8 °F 59.0 °F 68% 29.91 in 6.2 mi East 10.4 mph - N/A   Partly Cloudy
3:00 AM 69.8 °F 51.8 °F 53% 29.89 in - East 12.7 mph - N/A   Clear
4:00 AM 69.8 °F 57.2 °F 64% 29.90 in - East 13.8 mph - N/A   Clear
5:00 AM 69.8 °F 57.2 °F 64% 29.91 in 6.2 mi East 16.1 mph - N/A   Partly Cloudy
6:00 AM 69.8 °F 57.2 °F 64% 29.92 in 6.2 mi East 16.1 mph - N/A   Partly Cloudy
7:00 AM 71.6 °F 59.0 °F 64% 29.95 in 6.2 mi ENE 23.0 mph - N/A   Partly Cloudy
8:00 AM 73.4 °F 59.0 °F 61% 29.97 in 6.2 mi ENE 23.0 mph - N/A   Partly Cloudy
9:00 AM 75.2 °F 60.8 °F 61% 29.98 in 6.2 mi East 16.1 mph - N/A   Partly Cloudy
10:00 AM 77.0 °F 59.0 °F 54% 29.99 in 6.2 mi ENE 27.6 mph 39.1 mph N/A   Partly Cloudy
11:00 AM 78.8 °F 60.8 °F 54% 29.98 in 6.2 mi East 18.4 mph - N/A   Partly Cloudy
12:00 PM 77.0 °F 60.8 °F 57% 29.96 in 6.2 mi East 23.0 mph 34.5 mph N/A   Scattered Clouds
1:00 PM 77.0 °F 57.2 °F 50% 29.92 in 6.2 mi ENE 31.1 mph 42.6 mph N/A   Scattered Clouds
2:00 PM 77.0 °F 57.2 °F 50% 29.89 in 6.2 mi ENE 32.2 mph - N/A   Partly Cloudy
3:00 PM 77.0 °F 55.4 °F 47% 29.86 in 6.2 mi ENE 19.6 mph 36.8 mph N/A   Unknown
4:00 PM 77.0 °F 57.2 °F 50% 29.86 in 6.2 mi East 11.5 mph 24.2 mph N/A   Partly Cloudy
5:00 PM 75.2 °F 59.0 °F 57% 29.88 in 6.2 mi ENE 11.5 mph 25.3 mph N/A   Partly Cloudy
6:00 PM 71.6 °F 59.0 °F 64% 29.89 in - East 13.8 mph 25.3 mph N/A   Clear
7:00 PM 71.6 °F 59.0 °F 64% 29.92 in - East 20.7 mph 35.7 mph N/A   Clear
8:00 PM 69.8 °F 60.8 °F 73% 29.94 in - East 16.1 mph - N/A   Clear
9:00 PM 69.8 °F 60.8 °F 73% 29.94 in 1.2 mi North - - N/A   Unknown